Regional Weather Roundup
Issued by NWS Kansas City/Pleasant Hill, MO

Home | Current Version | Previous Version | Text Only | Print | Product List | Glossary On
Versions: 1 2 3 4 5 6 7 8 9 10 11 12 13 14 15 16 17 18 19 20 21 22 23 24 25 26 27 28 29 30 31 32 33 34 35 36 37 38 39 40 41 42 43 44 45 46 47 48 49 50
678
ASUS43 KEAX 280310
RWREAX

WEATHER ROUNDUP FOR EASTERN KANSAS AND NORTHWEST MISSOURI
NATIONAL WEATHER SERVICE KANSAS CITY/PLEASANT HILL MO
900 PM CST MON FEB 27 2017

KSZ040-057-103>105-MOZ028-029-037-043-280400-
...KANSAS CITY METROPOLITAN AREA...

CITY           SKY/WX    TMP DP  RH WIND       PRES   REMARKS
K.C. INTL      CLOUDY    55  45  68 S10       29.78R
K.C. DOWNTOWN  CLOUDY    60  46  59 S7        29.77F
LEES SUMMIT    CLOUDY    58  46  64 S12       29.80S
OLATHE - IXD   CLOUDY    57  48  72 SE10      29.78F
OLATHE - OJC   CLOUDY    56  48  74 S9        29.79S
LAWRENCE         N/A    N/A N/A N/A MISG      29.77R

$$

MOZ001>008-011>017-020>025-030>033-038>040-044>046-053-054-280400-
...NORTHERN AND CENTRAL MISSOURI...

CITY           SKY/WX    TMP DP  RH WIND       PRES   REMARKS
ST. JOSEPH     MOCLDY    50  38  63 SE6       29.77F
MOSBY          CLOUDY    57  43  58 SE6       29.79S
WARRENSBURG    CLOUDY    57  43  58 SE10G17   29.81S
WHITEMAN AFB   MOCLDY    58  44  60 S14       29.81S
CLINTON        CLOUDY    61  46  59 S14G20    29.84R
SEDALIA        CLOUDY    61  44  53 S18G26    29.84F
WARSAW         NOT AVBL
CHILLICOTHE      N/A     55  35  47 SE8       29.81F
KIRKSVILLE     CLOUDY    53  35  50 SE8       29.86R

$$

MOZ041-047>049-056>058-063>065-088>090-097-280400-
...EASTERN AND SOUTHERN MISSOURI...

CITY           SKY/WX    TMP DP  RH WIND       PRES   REMARKS
ST. LOUIS INTL MOCLDY    59  47  64 SE15      29.97F
SPIRIT OF STL  CLOUDY    59  48  67 S15G24    29.95F
COLUMBIA       CLOUDY    60  41  49 S21G28    29.87S
JEFFERSON CITY MOCLDY    60  43  53 SE12G21   29.89R
ROLLA          CLOUDY    56  48  74 S17G29    29.93R
OSAGE BEACH    CLOUDY    59  48  67 S16G22    29.90R
SPRINGFIELD    LGT RAIN  59  51  75 S18       29.90S
BRANSON        CLOUDY    55  50  82 S9        29.96R
JOPLIN         CLOUDY    62  54  74 S18       29.86R
WEST PLAINS    CLOUDY    53  49  86 S9        30.00F

$$

IAZ060-094-KSZ022-034>040-054-083-096-NEZ052-066-093-280400-
...KANSAS...SOUTHEAST NEBRASKA AND IOWA...

CITY           SKY/WX    TMP DP  RH WIND       PRES   REMARKS
TOPEKA         CLOUDY    57  50  77 S12       29.74F
MANHATTAN      CLOUDY    53  44  71 NE3       29.71F
EMPORIA        PTCLDY    57  52  83 S16       29.74S
CHANUTE        CLOUDY    63  55  75 S15G28    29.81R
WICHITA        CLOUDY    59  50  72 S15       29.71S
OMAHA          CLOUDY    45  30  55 SE7       29.73F
LINCOLN        CLOUDY    42  34  73 CALM      29.73S
FALLS CITY     CLOUDY    48  35  60 SE6       29.74F
LAMONI         CLOUDY    51  30  44 CALM      29.79F
DES MOINES     CLOUDY    52  29  41 E9        29.82S

$$





USA.gov is the U.S. government's official web portal to all federal, state and local government web resources and services.